| time (UTC) | temp C | wind direction | speed KPH | gust KPH | rain 1hr cm | rain 24hr cm | rain mn cm | humidity % | barometer mb |
| 20260502214112 | 13 | 101 | 8.0 | 8.0 | 0.00 | 0.00 | 0.00 | 58 | 1016.6 |
| 20260502213112 | 13 | 96 | 4.8 | 6.4 | 0.00 | 0.00 | 0.00 | 59 | 1016.6 |
| 20260502212113 | 13 | 101 | 8.0 | 9.7 | 0.00 | 0.00 | 0.00 | 61 | 1016.7 |
| 20260502210719 | 13 | 96 | 4.8 | 6.4 | 0.00 | 0.00 | 0.00 | 57 | 1016.8 |
| 20260502205720 | 14 | 96 | 6.4 | 8.0 | 0.00 | 0.00 | 0.00 | 56 | 1016.9 |
| 20260502204719 | 14 | 107 | 4.8 | 4.8 | 0.00 | 0.00 | 0.00 | 55 | 1016.9 |
| 20260502203720 | 15 | 98 | 6.4 | 6.4 | 0.00 | 0.00 | 0.00 | 55 | 1016.9 |
| 20260502202719 | 15 | 80 | 3.2 | 4.8 | 0.00 | 0.00 | 0.00 | 54 | 1016.8 |
| 20260502201716 | 15 | 92 | 1.6 | 4.8 | 0.00 | 0.00 | 0.00 | 54 | 1017.0 |
| 20260502200716 | 15 | 92 | 3.2 | 4.8 | 0.00 | 0.00 | 0.00 | 54 | 1016.9 |
| 20260502195716 | 15 | 101 | 3.2 | 6.4 | 0.00 | 0.00 | 0.00 | 53 | 1016.9 |
| 20260502194716 | 15 | 83 | 1.6 | 4.8 | 0.00 | 0.00 | 0.00 | 54 | 1017.0 |
| 20260502193717 | 16 | 84 | 3.2 | 4.8 | 0.00 | 0.00 | 0.00 | 54 | 1017.1 |
| 20260502192714 | 16 | 101 | 3.2 | 4.8 | 0.00 | 0.00 | 0.00 | 54 | 1017.1 |
| 20260502191713 | 16 | 101 | 3.2 | 4.8 | 0.00 | 0.00 | 0.00 | 54 | 1016.9 |
| 20260502190714 | 17 | 100 | 1.6 | 4.8 | 0.00 | 0.00 | 0.00 | 50 | 1016.9 |
| 20260502185713 | 17 | 93 | 3.2 | 4.8 | 0.00 | 0.00 | 0.00 | 49 | 1016.8 |
| 20260502184713 | 18 | 96 | 4.8 | 4.8 | 0.00 | 0.00 | 0.00 | 48 | 1016.7 |
| 20260502183711 | 18 | 62 | 3.2 | 3.2 | 0.00 | 0.00 | 0.00 | 48 | 1016.9 |
| 20260502182711 | 18 | 98 | 3.2 | 4.8 | 0.00 | 0.00 | 0.00 | 48 | 1016.8 |
| 20260502181710 | 20 | 96 | 4.8 | 6.4 | 0.00 | 0.00 | 0.00 | 45 | 1016.6 |
| 20260502180711 | 20 | 98 | 3.2 | 3.2 | 0.00 | 0.00 | 0.00 | 42 | 1016.8 |
| 20260502163703 | 25 | 101 | 3.2 | 6.4 | 0.00 | 0.00 | 0.00 | 35 | 1017.0 |
| 20260502162704 | 26 | 101 | 3.2 | 3.2 | 0.00 | 0.00 | 0.00 | 32 | 1017.0 |
| 20260502161704 | 26 | 97 | 1.6 | 3.2 | 0.00 | 0.00 | 0.00 | 33 | 1017.2 |
| 20260502160701 | 27 | 59 | 1.6 | 4.8 | 0.00 | 0.00 | 0.00 | 33 | 1017.1 |
| 20260502151657 | 28 | 71 | 1.6 | 4.8 | 0.00 | 0.00 | 0.00 | 32 | 1017.6 |
| 20260502150657 | 27 | 9 | 4.8 | 8.0 | 0.00 | 0.00 | 0.00 | 32 | 1017.6 |
| 20260502130649 | 26 | 32 | 3.2 | 4.8 | 0.00 | 0.00 | 0.00 | 35 | 1019.1 |
| 20260502123646 | 25 | 26 | 3.2 | 4.8 | 0.00 | 0.00 | 0.00 | 38 | 1019.6 |
| 20260502122646 | 22 | 21 | 1.6 | 4.8 | 0.00 | 0.00 | 0.00 | 42 | 1019.6 |
| 20260502121646 | 23 | 357 | 1.6 | 6.4 | 0.00 | 0.00 | 0.00 | 42 | 1019.7 |
| 20260502120646 | 23 | 40 | 3.2 | 3.2 | 0.00 | 0.00 | 0.00 | 43 | 1020.0 |
| 20260502115643 | 21 | 153 | 1.6 | 6.4 | 0.00 | 0.00 | 0.00 | 45 | 1020.2 |
| 20260502114644 | 21 | 307 | 1.6 | 8.0 | 0.00 | 0.00 | 0.00 | 44 | 1020.2 |
| 20260502113643 | 21 | 35 | 0.0 | 3.2 | 0.00 | 0.00 | 0.00 | 45 | 1020.4 |
| 20260502112643 | 22 | 338 | 1.6 | 4.8 | 0.00 | 0.00 | 0.00 | 43 | 1020.5 |
| 20260502111643 | 21 | 163 | 0.0 | 6.4 | 0.00 | 0.00 | 0.00 | 44 | 1020.6 |
| 20260502110640 | 21 | 336 | 3.2 | 6.4 | 0.00 | 0.00 | 0.00 | 42 | 1020.7 |
| 20260502105640 | 22 | 116 | 3.2 | 6.4 | 0.00 | 0.00 | 0.00 | 42 | 1020.9 |
| 20260502104640 | 22 | 45 | 0.0 | 4.8 | 0.00 | 0.00 | 0.00 | 44 | 1021.1 |
| 20260502103641 | 20 | 345 | 3.2 | 8.0 | 0.00 | 0.00 | 0.00 | 48 | 1021.4 |
| 20260502102640 | 20 | 5 | 1.6 | 3.2 | 0.00 | 0.00 | 0.00 | 50 | 1021.4 |
| 20260502101637 | 20 | 281 | 0.0 | 8.0 | 0.00 | 0.00 | 0.00 | 51 | 1021.4 |
| 20260502100637 | 20 | 338 | 3.2 | 4.8 | 0.00 | 0.00 | 0.00 | 50 | 1021.6 |
| 20260502090635 | 18 | 93 | 1.6 | 6.4 | 0.00 | 0.00 | 0.00 | 50 | 1022.3 |
| 20260502070627 | 16 | 351 | 0.0 | 3.2 | 0.00 | 0.00 | 0.00 | 52 | 1022.4 |
| 20260502065624 | 16 | 117 | 3.2 | 3.2 | 0.00 | 0.00 | 0.00 | 52 | 1022.5 |
| 20260502064624 | 16 | 143 | 3.2 | 4.8 | 0.00 | 0.00 | 0.00 | 53 | 1022.5 |
| 20260502063624 | 15 | 129 | 3.2 | 4.8 | 0.00 | 0.00 | 0.00 | 55 | 1022.4 |
| 20260502062624 | 15 | 162 | 1.6 | 4.8 | 0.00 | 0.00 | 0.00 | 56 | 1022.4 |
| 20260502061624 | 14 | 102 | 4.8 | 6.4 | 0.00 | 0.00 | 0.00 | 59 | 1022.2 |
| 20260502060621 | 13 | 104 | 3.2 | 6.4 | 0.00 | 0.00 | 0.00 | 62 | 1022.4 |
| 20260502055621 | 12 | 111 | 6.4 | 11.3 | 0.00 | 0.00 | 0.00 | 69 | 1022.3 |
| 20260502054621 | 11 | 95 | 3.2 | 6.4 | 0.00 | 0.00 | 0.00 | 72 | 1022.3 |
| 20260502053621 | 10 | 89 | 8.0 | 14.5 | 0.00 | 0.00 | 0.00 | 74 | 1022.3 |
| 20260502052621 | 10 | 93 | 6.4 | 11.3 | 0.00 | 0.00 | 0.00 | 76 | 1022.0 |
| 20260502051618 | 10 | 100 | 4.8 | 4.8 | 0.00 | 0.00 | 0.00 | 75 | 1022.0 |
| 20260502050618 | 9 | 120 | 6.4 | 8.0 | 0.00 | 0.00 | 0.00 | 77 | 1022.0 |
| 20260502045617 | 8 | 89 | 4.8 | 8.0 | 0.00 | 0.00 | 0.00 | 76 | 1021.9 |
| 20260502044618 | 8 | 91 | 6.4 | 8.0 | 0.00 | 0.00 | 0.00 | 78 | 1022.1 |
| 20260502043618 | 7 | 95 | 4.8 | 8.0 | 0.00 | 0.00 | 0.00 | 79 | 1021.9 |
| 20260502042614 | 8 | 94 | 6.4 | 11.3 | 0.00 | 0.00 | 0.00 | 75 | 1022.0 |
| 20260502041615 | 8 | 126 | 8.0 | 9.7 | 0.00 | 0.00 | 0.00 | 76 | 1021.8 |
| 20260502040615 | 8 | 97 | 4.8 | 6.4 | 0.00 | 0.00 | 0.00 | 75 | 1021.8 |
| 20260502035615 | 8 | 111 | 6.4 | 11.3 | 0.00 | 0.00 | 0.00 | 74 | 1022.0 |
| 20260502034615 | 8 | 114 | 3.2 | 9.7 | 0.00 | 0.00 | 0.00 | 72 | 1022.0 |
| 20260502033612 | 8 | 96 | 8.0 | 11.3 | 0.00 | 0.00 | 0.00 | 74 | 1021.9 |
| 20260502032612 | 8 | 91 | 4.8 | 6.4 | 0.00 | 0.00 | 0.00 | 73 | 1022.0 |
| 20260502031613 | 8 | 136 | 6.4 | 8.0 | 0.00 | 0.00 | 0.00 | 74 | 1022.0 |
| 20260502030612 | 8 | 99 | 3.2 | 9.7 | 0.00 | 0.00 | 0.00 | 75 | 1021.8 |
| 20260502025614 | 8 | 107 | 6.4 | 9.7 | 0.00 | 0.00 | 0.00 | 75 | 1021.9 |
| 20260502024609 | 8 | 99 | 4.8 | 8.0 | 0.00 | 0.00 | 0.00 | 74 | 1021.7 |
| 20260502023610 | 8 | 97 | 4.8 | 8.0 | 0.00 | 0.00 | 0.00 | 74 | 1022.0 |
| 20260502022609 | 8 | 103 | 4.8 | 6.4 | 0.00 | 0.00 | 0.00 | 73 | 1022.0 |
| 20260502021609 | 7 | 98 | 6.4 | 8.0 | 0.00 | 0.00 | 0.00 | 75 | 1021.9 |
| 20260502020609 | 8 | 99 | 6.4 | 6.4 | 0.00 | 0.00 | 0.00 | 73 | 1021.9 |
| 20260502015606 | 8 | 101 | 6.4 | 8.0 | 0.00 | 0.00 | 0.00 | 72 | 1022.1 |
| 20260502014606 | 8 | 96 | 6.4 | 9.7 | 0.00 | 0.00 | 0.00 | 71 | 1022.2 |
| 20260502013607 | 8 | 97 | 6.4 | 6.4 | 0.00 | 0.00 | 0.00 | 71 | 1022.0 |
| 20260502012606 | 7 | 101 | 8.0 | 8.0 | 0.00 | 0.00 | 0.00 | 72 | 1022.1 |
| 20260502011606 | 7 | 96 | 8.0 | 9.7 | 0.00 | 0.00 | 0.00 | 70 | 1022.1 |
| 20260502010604 | 7 | 96 | 6.4 | 9.7 | 0.00 | 0.00 | 0.00 | 70 | 1022.0 |
| 20260502005603 | 8 | 98 | 6.4 | 11.3 | 0.00 | 0.00 | 0.00 | 68 | 1022.1 |
| 20260502004604 | 8 | 92 | 4.8 | 9.7 | 0.00 | 0.00 | 0.00 | 67 | 1022.1 |
| 20260502003603 | 8 | 100 | 6.4 | 8.0 | 0.00 | 0.00 | 0.00 | 66 | 1022.2 |
| 20260502002603 | 9 | 98 | 6.4 | 6.4 | 0.00 | 0.00 | 0.00 | 65 | 1022.1 |
| 20260502001600 | 10 | 92 | 4.8 | 6.4 | 0.00 | 0.00 | 0.00 | 62 | 1022.2 |
| 20260502000600 | 10 | 95 | 4.8 | 6.4 | 0.00 | 0.00 | 0.00 | 60 | 1022.2 |
| 20260501235559 | 9 | 98 | 8.0 | 9.7 | 0.00 | 0.00 | 0.00 | 62 | 1022.2 |
| 20260501234559 | 8 | 96 | 6.4 | 9.7 | 0.00 | 0.00 | 0.00 | 66 | 1022.2 |
| 20260501233559 | 8 | 102 | 6.4 | 6.4 | 0.00 | 0.00 | 0.00 | 66 | 1022.1 |
| 20260501232557 | 8 | 94 | 6.4 | 8.0 | 0.00 | 0.00 | 0.00 | 67 | 1022.3 |
| 20260501231557 | 8 | 100 | 8.0 | 9.7 | 0.00 | 0.00 | 0.00 | 68 | 1022.4 |
| 20260501230557 | 8 | 99 | 8.0 | 9.7 | 0.00 | 0.00 | 0.00 | 67 | 1022.2 |
| 20260501225557 | 8 | 98 | 8.0 | 9.7 | 0.00 | 0.00 | 0.00 | 64 | 1022.1 |
| 20260501224558 | 8 | 93 | 6.4 | 9.7 | 0.00 | 0.00 | 0.00 | 64 | 1022.1 |
| 20260501223554 | 10 | 96 | 6.4 | 9.7 | 0.00 | 0.00 | 0.00 | 61 | 1022.3 |
| 20260501222553 | 10 | 95 | 6.4 | 8.0 | 0.00 | 0.00 | 0.00 | 60 | 1022.4 |
| 20260501221553 | 10 | 102 | 6.4 | 8.0 | 0.00 | 0.00 | 0.00 | 59 | 1022.2 |
| 20260501220554 | 11 | 94 | 4.8 | 8.0 | 0.00 | 0.00 | 0.00 | 54 | 1022.3 |
| 20260501215554 | 11 | 89 | 4.8 | 8.0 | 0.00 | 0.00 | 0.00 | 52 | 1022.3 |
| 20260501214550 | 11 | 98 | 6.4 | 8.0 | 0.00 | 0.00 | 0.00 | 56 | 1022.3 |